Regional Weather Roundup
Issued by NWS

Home | Current Version | Previous Version | Graphics & Text | Print | Product List | Glossary On
Versions: 1 2 3 4 5 6 7 8 9 10 11 12 13 14 15 16 17 18 19 20 21 22 23 24 25 26 27 28 29 30 31 32 33 34 35 36 37 38 39 40 41 42 43 44 45 46 47 48 49 50
592
ASUS43 KBIS 210002
RWRND

NORTH DAKOTA REGIONAL WEATHER ROUNDUP
NATIONAL WEATHER SERVICE BISMARCK ND
700 PM CDT FRI OCT 20 2017

NOTE: "FAIR" INDICATES FEW OR NO CLOUDS BELOW 12,000 FEET WITH NO
SIGNIFICANT WEATHER AND/OR OBSTRUCTIONS TO VISIBILITY.


NDZ001>003-009>011-017-210100-
NORTHWEST NORTH DAKOTA

CITY           SKY/WX    TMP DP  RH WIND       PRES   REMARKS
WILLISTON      CLEAR     70  39  32 NE2       29.18F
MINOT          CLEAR     69  44  40 SE8       29.22S
MINOT AFB      CLEAR     65  39  39 S10       29.21R
$$

NDZ018>021-031>035-040>046-210100-
SOUTHWEST NORTH DAKOTA

CITY           SKY/WX    TMP DP  RH WIND       PRES   REMARKS
BISMARCK       CLEAR     71  50  47 S10       29.28S
6HR MIN TEMP:  70; 6HR MAX TEMP:  77;

DICKINSON      CLEAR     66  37  34 S7        29.20F
GARRISON         N/A     67  48  50 SE10      29.24S
6HR MIN TEMP:  67; 6HR MAX TEMP:  79;

HETTINGER ARPT CLEAR     71  35  26 S12       29.26S
$$

NDZ004>008-012>016-024-026-027-054-210100-
NORTHEAST NORTH DAKOTA

CITY           SKY/WX    TMP DP  RH WIND       PRES   REMARKS
GRAND FORKS    CLOUDY    73  55  53 S17G26    29.36F
GRND FRKS AFB  PTCLDY    70  52  53 SE14      29.35F
DEVILS LAKE    CLOUDY    65  51  60 S16       29.31S
$$

NDZ022-023-025-028>030-036>039-047>053-210100-
SOUTHEAST NORTH DAKOTA

CITY           SKY/WX    TMP DP  RH WIND       PRES   REMARKS
FARGO          PTCLDY    72  54  53 S18G31    29.43S
6HR MIN TEMP:  72; 6HR MAX TEMP:  78;

JAMESTOWN      CLOUDY    71  53  52 S18G31    29.34F
$$





USA.gov is the U.S. government's official web portal to all federal, state and local government web resources and services.